World > North America > United States > Texas

Sunray, Texas Regional Weather

Lat: 36.02N, Lon: 101.82W
Wx Zone: TXZ007Web Search
Sunray Weather Warning NWS WEATHER ALERT FOR THE SUNRAY, TX AREA - Issued: 356 AM CDT Fri Apr 16 2021 Sunray Weather Warning  

If you are on your PC, you can easily pass this page to your phone by scanning the QR Code near the bottom with your camera.

Feedback


°F Click to change Sunray hourly weather to Imperial units.Click to change Sunray hourly weather to Metric units. °C
Sunray Weather Map
UTC Time: 4/16/2021, 09:06
Your Time:

Sunray, TX Regional Weather

Expires:202104161000;;632688
ASUS44 KSJT 160902
RWRSJT
WEST CENTRAL TEXAS REGIONAL WEATHER ROUNDUP
NATIONAL WEATHER SERVICE SAN ANGELO TX
400 AM CDT FRI APR 16 2021

NOTE: "FAIR" INDICATES FEW OR NO CLOUDS BELOW 12,000 FEET WITH NO
SIGNIFICANT WEATHER AND/OR OBSTRUCTIONS TO VISIBILITY.


TXZ001-004-007-008-010-012-014-016-OKZ002-161000-
TEXAS PANHANDLE/OKLAHOMA PANHANDLE
  
CITY           SKY/WX    TMP DP  RH WIND       PRES   REMARKS
AMARILLO       CLOUDY    41  40  96 E13       29.87F WCI  34          
BORGER         CLOUDY    44  40  85 E5        29.91F                  
CANADIAN       NOT AVBL                                               
DALHART        CLOUDY    41  40  96 SE5       29.91S FOG     WCI  38  
DUMAS          FOG       40  40  99 E8        29.90F VSB 1/2 WCI  34  
GUYMON         NOT AVBL                                               
HEREFORD       PTSUNNY   44  44 100 SE8       29.89F WCI  39          
PAMPA          CLOUDY    42  41  96 E10       29.92F FOG     WCI  36  
PERRYTON       CLOUDY    40  39  95 SE13      29.88F WCI  33          
$$


SKY/WX - Weather  TMP - Temperature  DP - Dew Point  RH - Relative Humidity
WIND - Wind Direction/Speed PRES - Barometric Pressure VSB - Visibility
WCI - Wind Chill Index E13G22 Wind - East Wind 13 mph/Gusts of 22 mph